Tracking 34719 objects as of 13-Jul-2026
HD Live streaming from Space Station
objects crossing your sky now

H-2A R/B

Track H-2A R/B now!


NORAD ID: 49337
Int'l Code: 2021-096B
Perigee: 228.1 km
Apogee: 28,177.0 km
Inclination: 31.7 °
Period: 489.5 minutes
Semi major axis: 20573 km
RCS: Unknown
Launch date: October 26, 2021
Source: Japan (JPN)
Launch site: TANEGASHIMA SPACE CENTER (TNSTA)

Note: This is a ROCKET BODY
Your satellite tracking list
Your tracking list is empty




NASA's NSSDC Master Catalog

Two Line Element Set (TLE):
1 49337U 21096B   26192.91578339  .00016233  00000-0  16086-2 0  9997
2 49337  31.6655 126.0153 6792435 171.1280 213.6502  2.94197413 43712
Source of the keplerian elements: AFSPC